This is the latest recevied weather packets stored in our database for station/object WD7OO. If no packets are shown the sender has not sent any weather packets the latest 10 day(s).
| Time | Temp. | Humidity | Pressure | Rain* | Wind** | Luminosity | Snow |
|---|---|---|---|---|---|---|---|
| 1777603463 | 5.56° C | 96% | 1015.9 hPa | 3.05 mm | - | 0 W/m² | - |
| 1777603159 | 5.56° C | 96% | 1015.7 hPa | 3.05 mm | - | 0 W/m² | - |
| 1777602854 | 5.56° C | 96% | 1016 hPa | 3.05 mm | - | 0 W/m² | - |
| 1777602549 | 6.11° C | 96% | 1015.8 hPa | 3.05 mm | - | 0 W/m² | - |
| 1777602245 | 6.11° C | 95% | 1015.7 hPa | 1.27 mm | - | 0 W/m² | - |
| 1777601941 | 6.11° C | 95% | 1016 hPa | 0 mm | - | 0 W/m² | - |
| 1777601641 | 6.11° C | 94% | 1015.5 hPa | 1.78 mm | - | 0 W/m² | - |
| 1777601337 | 6.11° C | 94% | 1015.5 hPa | 1.78 mm | - | 0 W/m² | - |
| 1777601034 | 6.11° C | 93% | 1015.6 hPa | 0 mm | - | 0 W/m² | - |
| 1777600730 | 6.11° C | 92% | 1015.6 hPa | 1.27 mm | - | 0 W/m² | - |
| 1777600427 | 6.11° C | 92% | 1015.5 hPa | 1.27 mm | - | 0 W/m² | - |
| 1777600122 | 6.11° C | 91% | 1015.5 hPa | 0 mm | - | 0 W/m² | - |
| 1777599818 | 6.67° C | 91% | 1015.5 hPa | 1.78 mm | - | 0 W/m² | - |
| 1777599514 | 6.67° C | 91% | 1015.5 hPa | 1.78 mm | - | 0 W/m² | - |
| 1777599211 | 6.67° C | 90% | 1015.5 hPa | 0 mm | - | 0 W/m² | - |
| 1777598906 | 6.67° C | 88% | 1015.3 hPa | 0 mm | - | 0 W/m² | - |
| 1777598599 | 6.67° C | 87% | 1015.4 hPa | 0 mm | - | 0 W/m² | - |
| 1777598295 | 6.67° C | 87% | 1015.4 hPa | 0 mm | - | 0 W/m² | - |
| 1777597993 | 7.22° C | 89% | 1015.6 hPa | 0 mm | - | 0 W/m² | - |
| 1777597691 | 7.22° C | 87% | 1015.4 hPa | 1.78 mm | - | 0 W/m² | - |
| 1777597388 | 7.22° C | 85% | 1015.6 hPa | 1.78 mm | - | 0 W/m² | - |
| 1777597083 | 7.22° C | 83% | 1015.3 hPa | 0 mm | - | 0 W/m² | - |
| 1777596780 | 7.22° C | 82% | 1015.4 hPa | 0 mm | - | 0 W/m² | - |
| 1777596475 | 7.78° C | 82% | 1015.1 hPa | 0 mm | - | 0 W/m² | - |
| 1777596173 | 7.78° C | 78% | 1015.2 hPa | 0 mm | - | 0 W/m² | - |
* Rain latest hour (hover to see other rain measurements)
** Current wind speed in m/s (hover to see current wind gust speed)